User: anonymous
Location: UBC Liquid-Mirror Observatory
(49.2876°N, 122.5728°W)
Time: 02:49:33
(UTC-07:00)
Language:

Cosmos 1743 Rocket - Orbit

View from above orbital plane
View from above orbital plane
View from above satellite
View from above satellite

Ground track
Ground track

The orbit data is extracted from the following two-line orbital elements,

1 16720U 86034B   14211.83328590  .00000254  00000-0  28450-4 0  5095
2 16720 082.5565 142.3463 0019405 336.0843 075.9671 14.82761520523289
Epoch (UTC): 30 July 2014 19:59:55
Eccentricity: 0.0019405
inclination: 82.5565°
perigee height: 607 km
apogee height: 634 km
right ascension of ascending node: 142.3463°
argument of perigee: 336.0843°
revolutions per day: 14.82761520
mean anomaly at epoch: 75.9671°
orbit number at epoch: 52328

The dashed part of the orbit path shows where the satellite is in the earth's shadow,  

DLR